User: anonymous   Login
Location: Platte
(43.3870°N, 98.8440°W)
Time: 03:37:01
(UTC-06:00)
Language:

Landsat 7 - Orbit

View from above orbital plane
View from above orbital plane
View from above satellite
View from above satellite

Ground track
Ground track

The orbit data is extracted from the following two-line orbital elements,

1 25682U 99020A   14331.79666275 -.00001482  00000-0 -31905-3 0  8350
2 25682 098.2211 039.2937 0000697 075.1259 285.0006 14.57094904830816
Epoch (UTC): 27 November 2014 19:07:11
Eccentricity: 0.0000697
inclination: 98.2211°
perigee height: 702 km
apogee height: 703 km
right ascension of ascending node: 39.2937°
argument of perigee: 75.1259°
revolutions per day: 14.57094904
mean anomaly at epoch: 285.0006°
orbit number at epoch: 83081

The dashed part of the orbit path shows where the satellite is in the earth's shadow,  

DLR